TIANMU-1 21

Last updated on Sat Aug 15 2026 00:02:41 GMT+0000 (Coordinated Universal Time)

1 58662U 23208C 26226.56982380 .00005667 00000+0 16374-3 0 9998 2 58662 97.4557 346.8537 0008541 106.7486 253.4696 15.36029023146526
UTC large
Height (km)
Speed (km/s)
/
Latitude / Longitude
Inclination (degrees)
Orbital Period (minutes)
Azimuth
Elevation
Range (km)
Doppler Factor

Next 0 passes for location: London (51.5072 / 0.1276)

No passes found over London.
TIANMU-1 21